Weather in Bor

Russia / Perm Krai     57°03′35″N   57°33′44″E
temp.,
°C
wind,
m/s
gust,
m/s
humid.,
%
clouds,
%
prec.,
mm/h
press.,
hPa
HPBL,
m
26 february, fri
fri2623:00−25s23950 0.0 102920
02:00−26sse23910 0.0 102819
05:00−27sse33920 0.0 102820
08:00−27sse339164 0.0 102732
11:00−22se358843 0.0 1026202
14:00−17sse45846 0.0 1024367
17:00−16sse468411 0.0 1023353
20:00−20sse3486100 0.0 102163
27 february, sat
sat2723:00−20se348890 0.0 102077
02:00−22se479613 0.0 1017103
05:00−22se499345 0.0 1015168
08:00−21se51089100 0.0 1012248
11:00−17se61189100 0.0 1010354
14:00−13ese71193100 0.3 1008526
17:00−14ese71093100 0.8 1008585
20:00−16ese61193100 0.3 1008510
28 february, sun
sun2823:00−17e51194100 0.3 1008431
02:00−17e5109399 0.1 1007399
05:00−18e5109599 0.2 1007383
08:00−18ene5109497 0.2 1007356
11:00−16ene699397 0.3 1007451
14:00−13ene5891100 0.2 1008520
17:00−13ene5892100 0.4 1009562
20:00−15ene4996100 0.3 1011470
1 march, mon
mon123:00−17ene4896100 0.6 1013400
02:00−19ne4697100 0.3 1014245
05:00−21nne359793 0.3 1016119
08:00−25nne239645 0.0 101824
11:00−20nne239123 0.0 1019213
14:00−15n338661 0.0 1019377
17:00−15nnw349175 0.0 1019309
20:00−21wnw12971 0.0 102020
2 march, tue
tue223:00−21sw22991 0.0 102120
02:00−21wsw339853 0.0 102028
05:00−21sw359828 0.0 101980
08:00−21sw499823 0.0 1018180
11:00−16sw6129358 0.0 1016345
14:00−12sw7128676 0.0 1013517
17:00−11sw7138487 0.0 1011533
20:00−13sw61391100 0.3 1011516